, SD

(GMT )
Rapid City

Weather History for KRAP - June, 2014

Change the Weather History Date:

Tuesday, June 17, 2014

  Actual Average Record
Temperature  
Mean Temperature 71 °F 65 °F  
Max Temperature 81 °F 78 °F 98 °F (1988)
Min Temperature 61 °F 52 °F 35 °F (2000)
Degree Days  
Heating Degree Days 0 3  
Month to date heating degree days 117 75  
Since 1 June heating degree days 117 75  
Since 1 July heating degree days 7756 7129  
Cooling Degree Days 6 3  
Month to date cooling degree days 6 28  
Year to date cooling degree days 26 43  
Since 1 June cooling degree days 6 28  
Growing Degree Days 22 (Base 50)    
Moisture  
Dew Point 65 °F    
Average Humidity 81    
Maximum Humidity 100    
Minimum Humidity 62    
Precipitation  
Precipitation 0.12 in 0.08 in 1.91 in (1946)
Month to date precipitation 3.34 1.66  
Year to date precipitation 8.73 8.35  
Snow  
Snow 0.00 in 0.00 in 0.00 in ()
Month to date snowfall 0.0 0.0  
Since 1 June snowfall 0.0 0.0  
Since 1 July snowfall 63.8 41.1  
Snow Depth 0.00 in    
Sea Level Pressure  
Sea Level Pressure 29.69 in    
Wind  
Wind Speed 11 mph (ESE)    
Max Wind Speed 26 mph    
Max Gust Speed 35 mph    
Visibility 8 miles    
Events Rain , Thunderstorm    
T = Trace of Precipitation, MM = Missing Value Source: NWS Daily Summary

Daily Weather History Graph

Daily Weather History Graph

Search for Another Location

Airport or City:

Trip Planner

Search our weather history database for the weather conditions in past years. The results will help you decide how hot, cold, wet, or windy it might be!

Date:

Astronomy

Jun. 17, 2014 Rise Set
Actual Time 5:08 AM MDT 8:37 PM MDT
Civil Twilight 4:32 AM MDT 9:14 PM MDT
Nautical Twilight 3:44 AM MDT 10:02 PM MDT
Astronomical Twilight 2:43 AM MDT 11:03 PM MDT
Moon 11:56 PM MDT (6/17) 10:35 AM MDT (6/17)
Length of Visible Light 16h 41m
Length of Day
15h 29m
Waning Gibbous, 73% of the Moon is Illuminated
Jun 17
Waning Gibbous
Jun 19
Last Quarter
Jun 27
New
Jul 5
First Quarter
Jul 12
Full

Hourly Weather History & Observations

Time (MDT) Temp. Heat Index Dew Point Humidity Pressure Visibility Wind Dir Wind Speed Gust Speed Precip Events Conditions
12:52 AM 64.0 °F - 62.1 °F 93% 29.64 in 10.0 mi NE 8.1 mph - N/A   Overcast
1:20 AM 64.0 °F - 63.0 °F 96% 29.71 in 7.0 mi ENE 6.9 mph - N/A   Overcast
1:30 AM 64.0 °F - 63.0 °F 96% 29.71 in 1.8 mi ENE 8.1 mph - N/A   Overcast
1:52 AM 64.0 °F - 63.0 °F 96% 29.64 in 2.5 mi East 4.6 mph - N/A   Overcast
1:59 AM 64.0 °F - 63.0 °F 96% 29.72 in 4.0 mi Calm Calm - N/A   Overcast
2:52 AM 64.9 °F - 64.0 °F 97% 29.66 in 5.0 mi SE 3.5 mph - 0.00 in   Overcast
3:52 AM 64.9 °F - 63.0 °F 93% 29.67 in 6.0 mi East 8.1 mph - N/A   Overcast
4:41 AM 64.0 °F - 63.0 °F 96% 29.74 in 5.0 mi ESE 6.9 mph - N/A   Overcast
4:52 AM 64.0 °F - 63.0 °F 96% 29.67 in 6.0 mi ESE 6.9 mph - N/A   Overcast
5:52 AM 64.9 °F - 64.0 °F 97% 29.68 in 4.0 mi South 3.5 mph - N/A   Overcast
6:52 AM 66.0 °F - 64.0 °F 93% 29.69 in 5.0 mi ESE 4.6 mph - N/A   Overcast
7:31 AM 66.0 °F - 64.0 °F 93% 29.75 in 8.0 mi SE 9.2 mph - N/A   Overcast
7:52 AM 68.0 °F - 64.9 °F 90% 29.69 in 10.0 mi SE 9.2 mph - N/A   Overcast
8:52 AM 69.1 °F - 64.0 °F 84% 29.70 in 10.0 mi SSW 8.1 mph - N/A   Mostly Cloudy
9:02 AM 71.1 °F - 64.9 °F 81% 29.75 in 10.0 mi South 5.8 mph - N/A   Partly Cloudy
9:52 AM 72.0 °F - 63.0 °F 73% 29.69 in 10.0 mi SSE 10.4 mph - N/A   Clear
10:52 AM 75.0 °F - 63.0 °F 66% 29.67 in 10.0 mi South 11.5 mph - N/A   Clear
11:52 AM 77.0 °F - 64.0 °F 64% 29.66 in 10.0 mi SSE 12.7 mph - N/A   Clear
12:52 PM 79.0 °F - 66.0 °F 64% 29.65 in 10.0 mi SE 12.7 mph - N/A   Clear
1:52 PM 80.6 °F 82.7 °F 66.2 °F 61% 29.72 in 10.0 mi SE 12.7 mph - N/A   Clear
2:52 PM 80.6 °F 82.7 °F 66.2 °F 61% 29.71 in 10.0 mi SSE 10.4 mph - N/A   Clear
3:52 PM 80.1 °F 82.7 °F 68.0 °F 67% 29.61 in 10.0 mi ESE 15.0 mph - N/A   Clear
4:52 PM 78.1 °F - 69.1 °F 74% 29.61 in 10.0 mi ESE 20.7 mph 27.6 mph N/A   Clear
5:52 PM 73.0 °F - 66.9 °F 81% 29.62 in 10.0 mi East 23.0 mph 29.9 mph N/A   Scattered Clouds
6:14 PM 72.0 °F - 66.0 °F 81% 29.68 in 10.0 mi ESE 23.0 mph 33.4 mph N/A   Mostly Cloudy
6:52 PM 72.0 °F - 66.0 °F 81% 29.63 in 10.0 mi ESE 19.6 mph 27.6 mph N/A   Mostly Cloudy
7:52 PM 70.0 °F - 66.0 °F 87% 29.64 in 10.0 mi ESE 15.0 mph - N/A   Overcast
8:52 PM 68.0 °F - 64.9 °F 90% 29.68 in 9.0 mi East 11.5 mph - N/A   Overcast
9:04 PM 68.0 °F - 64.9 °F 90% 29.76 in 9.0 mi ESE 5.8 mph - N/A   Overcast
9:16 PM 68.0 °F - 64.9 °F 90% 29.77 in 8.0 mi East 5.8 mph - 0.00 in Rain Light Rain
9:41 PM 66.9 °F - 66.0 °F 97% 29.78 in 5.0 mi East 9.2 mph - 0.04 in Rain , Thunderstorm Light Rain
9:46 PM 66.2 °F - 66.2 °F 100% 29.79 in 6.0 mi East 3.5 mph - 0.04 in Rain , Thunderstorm Light Thunderstorms and Rain
9:52 PM 66.9 °F - 66.0 °F 97% 29.73 in 6.0 mi SSE 4.6 mph - 0.06 in Rain , Thunderstorm Light Thunderstorms and Rain
10:03 PM 66.9 °F - 66.0 °F 97% 29.80 in 2.0 mi Variable 3.5 mph - 0.03 in Rain , Thunderstorm Rain
10:13 PM 66.9 °F - 66.0 °F 97% 29.80 in 4.0 mi NNW 5.8 mph - 0.04 in Rain , Thunderstorm Light Rain
10:29 PM 66.9 °F - 66.0 °F 97% 29.79 in 5.0 mi East 4.6 mph - 0.04 in Rain Light Rain
10:47 PM 68.0 °F - 64.4 °F 88% 29.73 in 8.0 mi East 17.3 mph - 0.06 in Rain , Thunderstorm Light Rain
10:48 PM 68.0 °F - 64.4 °F 88% 29.73 in 8.0 mi East 16.1 mph - N/A Rain , Thunderstorm Light Rain
11:03 PM 68.0 °F - 64.9 °F 90% 29.70 in 10.0 mi East 16.1 mph - 0.00 in   Partly Cloudy
11:52 PM 64.9 °F - 59.0 °F 81% 29.62 in 10.0 mi ESE 10.4 mph - 0.00 in   Clear